Diyarbakir, Turkey

3:34 PM +03 on February 27, 2017 (GMT +0300)
Diyarbakir

Weather History for LTCC - September, 2012

Change the Weather History Date:

Monday, September 3, 2012

  Actual Average Record
Temperature  
Mean Temperature 80 °F -  
Max Temperature 94 °F 90 °F 102 °F (2007)
Min Temperature 65 °F 61 °F 59 °F (2001)
Cooling Degree Days 14    
Growing Degree Days 30 (Base 50)    
Moisture  
Dew Point 45 °F    
Average Humidity 27    
Maximum Humidity 56    
Minimum Humidity 8    
Precipitation  
Precipitation 0.00 in 0.01 in - ()
Sea Level Pressure  
Sea Level Pressure 29.80 in    
Wind  
Wind Speed 8 mph ()    
Max Wind Speed 13 mph    
Max Gust Speed 23 mph    
Visibility 7.2 miles    
Events      
Averages and records for this station are not official NWS values.
T = Trace of Precipitation, MM = Missing Value Source: Averaged Metar Reports

Daily Weather History Graph

Daily Weather History Graph

Search for Another Location

Airport or City:

Trip Planner

Search our weather history database for the weather conditions in past years. The results will help you decide how hot, cold, wet, or windy it might be!

Date:

Astronomy

Sep. 03, 2012 Rise Set
Actual Time 5:50 AM EEST 6:45 PM EEST
Civil Twilight 5:24 AM EEST 7:12 PM EEST
Nautical Twilight 4:52 AM EEST 7:43 PM EEST
Astronomical Twilight 4:19 AM EEST 8:16 PM EEST
Moon 7:57 PM EEST (9/3) 8:33 AM EEST (9/3)
Length of Visible Light 13h 47m
Length of Day
12h 54m
Waning Gibbous, 92% of the Moon is Illuminated
Sep 3
Waning Gibbous
Sep 8
Last Quarter
Sep 16
New
Sep 22
First Quarter
Sep 30
Full

Hourly Weather History & Observations

Time (EEST) Temp. Dew Point Humidity Pressure Visibility Wind Dir Wind Speed Gust Speed Precip Events Conditions
12:20 AM 75.2 °F 44.6 °F 34% 29.83 in - North 9.2 mph - N/A   Clear
12:50 AM 73.4 °F 44.6 °F 36% 29.83 in - North 6.9 mph - N/A   Clear
1:20 AM 75.2 °F 44.6 °F 34% 29.83 in - North 6.9 mph - N/A   Clear
1:50 AM 75.2 °F 46.4 °F 36% 29.83 in - North 8.1 mph - N/A   Clear
2:20 AM 75.2 °F 44.6 °F 34% 29.83 in - North 10.4 mph - N/A   Clear
3:00 AM 75 °F 45 °F 23% 29.70 in 12 mi North 11.5 mph - -  
3:20 AM 75.2 °F 46.4 °F 36% 29.80 in - North 11.5 mph - N/A   Clear
3:50 AM 75.2 °F 46.4 °F 36% 29.80 in - North 10.4 mph - N/A   Clear
4:20 AM 73.4 °F 46.4 °F 38% 29.80 in - North 8.1 mph - N/A   Clear
4:50 AM 71.6 °F 46.4 °F 41% 29.83 in - NNW 6.9 mph - N/A   Clear
5:20 AM 66.2 °F 50.0 °F 56% 29.83 in - West 5.8 mph - N/A   Clear
5:50 AM 66.2 °F 50.0 °F 56% 29.83 in - West 6.9 mph - N/A   Clear
6:20 AM 66.2 °F 50.0 °F 56% 29.83 in - NW 4.6 mph - N/A   Clear
6:50 AM 73.4 °F 48.2 °F 41% 29.83 in - NNW 3.5 mph - N/A   Clear
7:20 AM 73.4 °F 51.8 °F 47% 29.83 in - West 6.9 mph - N/A   Clear
7:50 AM 78.8 °F 48.2 °F 34% 29.86 in - NNW 9.2 mph - N/A   Clear
8:20 AM 80.6 °F 48.2 °F 32% 29.83 in - NNW 10.4 mph - N/A   Clear
8:50 AM 82.4 °F 46.4 °F 28% 29.86 in - North 10.4 mph - N/A   Clear
9:00 AM 82 °F 47 °F 20% 29.72 in 12 mi North 10.4 mph - -  
9:20 AM 86.0 °F 46.4 °F 25% 29.86 in 6.2 mi North 10.4 mph - N/A   Partly Cloudy
9:50 AM 86.0 °F 46.4 °F 25% 29.86 in 6.2 mi North 12.7 mph - N/A   Partly Cloudy
10:20 AM 87.8 °F 42.8 °F 21% 29.83 in 6.2 mi ENE 8.1 mph - N/A   Partly Cloudy
10:50 AM 89.6 °F 42.8 °F 20% 29.83 in 6.2 mi NNE 9.2 mph - N/A   Partly Cloudy
11:20 AM 89.6 °F 42.8 °F 20% 29.83 in 6.2 mi ENE 6.9 mph - N/A   Partly Cloudy
11:50 AM 89.6 °F 42.8 °F 20% 29.83 in 6.2 mi ENE 6.9 mph - N/A   Scattered Clouds
12:20 PM 89.6 °F 42.8 °F 20% 29.80 in 6.2 mi NNE 6.9 mph - N/A   Scattered Clouds
12:50 PM 91.4 °F 42.8 °F 18% 29.80 in 6.2 mi ENE 9.2 mph - N/A   Scattered Clouds
1:20 PM 93.2 °F 42.8 °F 17% 29.80 in 6.2 mi Variable 6.9 mph - N/A   Scattered Clouds
1:50 PM 93.2 °F 42.8 °F 17% 29.80 in 6.2 mi SW 4.6 mph - N/A   Scattered Clouds
2:20 PM 93.2 °F 41.0 °F 16% 29.77 in 6.2 mi NNE 9.2 mph 23.0 mph N/A   Scattered Clouds
2:50 PM 93.2 °F 39.2 °F 15% 29.77 in 6.2 mi North 8.1 mph - N/A   Scattered Clouds
3:00 PM 94 °F 40 °F 8% 29.62 in 12 mi North 8.1 mph - -   Partly Cloudy
3:20 PM 93.2 °F 39.2 °F 15% 29.77 in 6.2 mi Variable 5.8 mph - N/A   Scattered Clouds
3:50 PM 91.4 °F 41.0 °F 17% 29.77 in 6.2 mi NNE 6.9 mph - N/A   Scattered Clouds
4:20 PM 93.2 °F 41.0 °F 16% 29.77 in 6.2 mi North 6.9 mph - N/A   Scattered Clouds
4:50 PM 93.2 °F 42.8 °F 17% 29.77 in 6.2 mi ENE 11.5 mph - N/A   Scattered Clouds
5:20 PM 91.4 °F 41.0 °F 17% 29.77 in 6.2 mi North 6.9 mph - N/A   Scattered Clouds
5:50 PM 91.4 °F 42.8 °F 18% 29.77 in 6.2 mi NNE 9.2 mph - N/A   Partly Cloudy
6:20 PM 89.6 °F 44.6 °F 21% 29.77 in 6.2 mi NE 8.1 mph - N/A   Partly Cloudy
6:50 PM 87.8 °F 42.8 °F 21% 29.77 in - NNE 6.9 mph - N/A   Clear
7:20 PM 86.0 °F 42.8 °F 22% 29.77 in - NNE 4.6 mph - N/A   Clear
7:50 PM 86.0 °F 44.6 °F 23% 29.80 in - NE 9.2 mph - N/A   Clear
8:20 PM 86.0 °F 44.6 °F 23% 29.80 in - NNE 8.1 mph - N/A   Clear
8:50 PM 84.2 °F 44.6 °F 25% 29.80 in - North 6.9 mph - N/A   Clear
9:00 PM 84 °F 44 °F 15% 29.66 in 12 mi North 6.9 mph - -  
9:20 PM 84.2 °F 44.6 °F 25% 29.80 in - NNE 8.1 mph - N/A   Clear
9:50 PM 82.4 °F 44.6 °F 26% 29.80 in - NNE 9.2 mph - N/A   Clear
10:20 PM 82.4 °F 46.4 °F 28% 29.80 in - North 9.2 mph - N/A   Clear
10:50 PM 82.4 °F 46.4 °F 28% 29.83 in - NNE 9.2 mph - N/A   Clear
11:20 PM 82.4 °F 46.4 °F 28% 29.83 in - NNE 10.4 mph - N/A   Clear
11:50 PM 80.6 °F 46.4 °F 30% 29.83 in - North 9.2 mph - N/A   Clear